« Back
NWS Peachtree City, Ga » Text Product » GA Regional Weather Roundup


Printer-friendly Version
Current Version              Previous Versions:   1  2  3  4  5  6  7  8  9  

Regional Weather Roundup

033
ASUS42 KFFC 020503
RWRGA
WEATHER ROUNDUP FOR GEORGIA
NATIONAL WEATHER SERVICE PEACHTREE CITY GA
100 AM EDT WED SEP 02 2015

NOTE: "FAIR" INDICATES FEW OR NO CLOUDS BELOW 12,000 FEET WITH NO
SIGNIFICANT WEATHER AND/OR OBSTRUCTIONS TO VISIBILITY.

* = USE WITH CAUTION. THE STATIONS MARKED WITH AN ASTERISK MAY NOT
REPORT WEATHER SUCH AS PRECIPITATION, FOG, OR THUNDER AND ARE NOT
QUALITY CONTROLLED BY NWS.

THE REMARK "TC" DENOTES TEMPERATURE READING IN DEGREES CELSIUS.

GAZ001>058-020600-
NORTH GEORGIA

CITY           SKY/WX    TMP DP  RH WIND       PRES   REMARKS
ATLANTA        MOCLDY    76  68  76 CALM      30.12S
ATHENS         PTCLDY    71  69  93 CALM      30.12R
CHAMBLEE       PTCLDY    72  70  93 CALM      30.13R
PEACHTREE CITY PTCLDY    70  69  97 CALM      30.13R FOG
ROME           PTCLDY    71  69  93 N5        30.10S
WEST ATLANTA   MOCLDY    71  69  93 CALM      30.12R
GAINESVILLE    PTCLDY    74  70  87 CALM      30.16S
CARTERSVILLE   PTCLDY    70  68  93 CALM      30.11F


CITY           SKY/WX    TMP DP  RH WIND       PRES   REMARKS
DALTON*        PTCLDY    70  70 100 CALM      30.12S
MARIETTA       PTCLDY    73  69  87 CALM      30.13R
BLAIRSVILLE*     N/A     65  58  77 CALM      30.20R
$$

GAZ059>098-102>109-020600-
CENTRAL GEORGIA

CITY           SKY/WX    TMP DP  RH WIND       PRES   REMARKS
AUGUSTA-BUSH   CLEAR     71  71 100 E3        30.09R FOG
AUGUSTA-DANIEL CLEAR     78  70  76 SW3       30.10S
COLUMBUS       CLEAR     76  71  85 E3        30.09R
MACON          CLEAR     73  71  93 CALM      30.09S
ROBINS AFB     CLEAR     74  72  96 SE3       30.08F


CITY           SKY/WX    TMP DP  RH WIND       PRES   REMARKS
LAGRANGE*      CLEAR     75  75 100 CALM      30.11R
SYLVANIA*      CLOUDY    78  77  98 CALM      30.10F
MILLEDGEVILLE* CLEAR     73  72  94 CALM      30.10S
$$

GAZ099>101-110>166-020600-
SOUTH GEORGIA

CITY           SKY/WX    TMP DP  RH WIND       PRES   REMARKS
SAVANNAH       PTCLDY    78  75  90 CALM      30.09F
VALDOSTA       CLOUDY    77  77 100 CALM      30.08F
ALMA           PTCLDY    76  75  97 SE5       30.09S
ST SIMONS      PTCLDY    79  77  94 CALM      30.08F
FT STEWART     PTCLDY    76  74  93 CALM      30.07F
ALBANY         CLEAR     77  72  84 SE3       30.10S
HUNTER AFB     PTCLDY    77  77 100 N1        30.06F
MOODY AFB      CLOUDY    76  74  93 E3        30.07F
BRUNSWICK        N/A     72  72 100 CALM      30.09S


CITY           SKY/WX    TMP DP  RH WIND       PRES   REMARKS
BAINBRIDGE*    PTCLDY    77  72  83 CALM      30.07S
MOULTRIE*      MOCLDY    77  73  88 CALM      30.08F
VIDALIA*       CLOUDY    77  75  94 CALM      30.09F
WAYCROSS*      PTCLDY    79  79 100 SE3       30.08F
DOUGLAS*       PTCLDY    77  75  94 SE3       30.10S
$$



USA.gov is the U.S. government's official web portal to all federal, state and local government web resources and services.